Regional Weather Roundup
Issued by NWS Cleveland, OH

Home | Current Version | Previous Version | Text Only | Print | Product List | Glossary Off
Versions: 1 2 3 4 5 6 7 8 9 10 11 12 13 14 15 16 17 18 19 20 21 22 23 24 25 26 27 28 29 30 31 32 33 34 35 36 37 38 39 40 41 42 43 44 45 46 47 48 49 50

000
ASUS41 KCLE 200800
RWRCLE
OHIO REGIONAL WEATHER ROUNDUP
NATIONAL WEATHER SERVICE WILMINGTON, OH
400 AM EDT SUN AUG 20 2017

NOTE: "FAIR" INDICATES FEW OR NO CLOUDS BELOW 12,000 FEET WITH NO
SIGNIFICANT WEATHER AND/OR OBSTRUCTIONS TO VISIBILITY.

OHZ001>008-015>018-024>027-034-035-043-044-200900-
   NORTHWEST OHIO

CITY           SKY/WX    TMP DP  RH WIND       PRES   REMARKS
DEFIANCE       FAIR      58  56  93 CALM      30.04S
FINDLAY        FAIR      62  57  83 CALM      30.04S
TOLEDO EXPRESS FAIR      59  59 100 CALM      30.04R
TOLEDO EXEC    FAIR      62  60  93 CALM      30.04S
LIMA           FAIR      58  58 100 CALM      30.05S
$$

OHZ009>014-019>023-028>033-038-089-200900-
   NORTHEAST OHIO

CITY           SKY/WX    TMP DP  RH WIND       PRES   REMARKS
CLE-HOPKINS    FAIR      63  60  90 CALM      30.07R
CLE-LAKEFRONT  FAIR      66  61  84 SE8       30.04R
CUY CO. ARPT   NOT AVBL
LORAIN-ELYRIA    N/A    N/A N/A N/A MISG      30.06S
ASHTABULA      FAIR      59  58  96 CALM      30.06F
AKRON-CANTON   FAIR      63  57  81 CALM      30.07S
WOOSTER        FAIR      55  55 100 CALM      30.08R FOG
MANSFIELD      FAIR      61  59  93 CALM      30.07S
YOUNGSTOWN     FAIR      54  54 100 SE3       30.07S
$$

OHZ042-051>053-060>062-070>072-077>081-200900-
  SOUTHWEST OHIO

CITY           SKY/WX    TMP DP  RH WIND       PRES   REMARKS
CINC-COVINGTON MOCLDY    73  70  90 N3        30.03S
CINC-LUNKEN    CLOUDY    70  69  97 CALM      30.03S
HAMILTON       MOCLDY    69  68  96 CALM      30.03S
DAYTON         NOT AVBL
WRIGHT-PAT AFB NOT AVBL
DAYTON GENERAL MOCLDY    71  61  70 E7        30.03R
WILMINGTON     MOCLDY    66  66 100 CALM      30.05R
$$

OHZ036-037-039>041-045>050-054>059-063>069-073>076-082>088-200900-
  CENTRAL AND SOUTHEAST OHIO

CITY           SKY/WX    TMP DP  RH WIND       PRES   REMARKS
COLUMBUS       FAIR      65  64  97 CALM      30.05R
OSU AIRPORT    FAIR      62  62 100 N3        30.05S
BOLTON FIELD   NOT AVBL
RICKENBACK AFB NOT AVBL
NEWARK         FOG       62  61  96 CALM      30.06R VSB 1/4
MARION         FAIR      59  56  89 CALM      30.06S FOG
LANCASTER      FOG       60  60 100 CALM      30.06R VSB 1/4
ZANESVILLE     MOCLDY    59  58  96 CALM      30.06S FOG
NEW PHILLY     FOG       63  63 100 CALM      30.08R VSB 1/4
$$



USA.gov is the U.S. government's official web portal to all federal, state and local government web resources and services.